Probability
84 87 94 94 87 87 87 84 87 90 90 94 87 84 84 71 65 58 65 94 94 94 90 90 97 100 100 100 100 100 97 97 100 100 100 100 97 97 97 100 100 97 90
84 84 81 81 77 77 77 74 77 81 84 84 87 77 74 77 87 81 61 77 90 94 90 84 90 97 97 97 100 100 100 100 100 100 100 100 100 100 97 100 100 97 87
81 81 61 65 65 58 71 71 71 61 68 61 68 74 81 87 68 74 74 68 71 87 94 90 90 90 97 97 97 100 100 100 100 100 100 100 100 100 100 100 97 90 87
55 68 52 45 45 52 45 45 42 42 42 45 55 68 74 77 77 71 68 68 71 61 74 90 87 90 97 97 90 97 97 97 97 100 100 100 100 97 94 97 94 90 74
35 42 42 35 32 26 26 23 26 32 29 29 29 42 39 52 61 55 48 45 55 58 55 68 84 81 81 90 87 87 90 94 94 97 97 100 100 94 90 84 84 77 61
32 23 19 19 13 16 16 13 10 23 29 26 10 3 13 16 35 42 52 45 45 42 48 48 61 71 81 90 97 90 87 90 87 77 87 90 97 94 74 61 61 61 48
19 19 10 13 16 6 10 10 10 6 6 13 13 13 6 3 6 16 29 32 26 35 42 52 61 61 68 65 74 90 77 81 77 77 81 84 84 87 74 48 45 42 32
19 16 13 10 16 16 10 10 13 6 3 6 6 3 6 6 13 6 13 19 23 35 32 26 48 71 55 55 23 48 77 68 65 65 71 74 74 74 71 58 35 19 19
13 16 10 10 13 13 6 10 10 6 6 6 6 3 3 3 0 10 6 13 26 29 16 16 29 48 55 58 58 10 65 61 65 71 68 68 61 48 45 48 35 19 10
13 10 10 10 6 6 6 6 3 3 3 3 3 6 3 3 3 0 3 3 3 13 26 13 13 29 35 48 71 35 32 35 58 65 61 68 61 35 32 55 61 48 19
13 10 10 6 6 6 6 6 6 6 3 3 3 3 3 6 3 3 3 0 3 10 16 16 23 29 35 35 71 35 6 10 16 42 58 65 55 52 52 58 71 77 58
13 0 3 10 6 6 6 6 6 6 6 3 3 3 3 3 3 0 0 0 3 6 6 13 6 19 16 26 16 3 0 0 0 6 26 42 48 55 45 65 74 84 87
3 3 0 3 3 0 3 3 6 3 3 3 3 0 0 0 0 0 0 0 0 0 3 6 3 16 10 23 39 0 0 0 0 0 0 3 13 26 29 48 61 77 87
0 0 0 0 0 0 0 0 0 0 0 0 0 0 0 0 0 0 0 0 0 0 0 0 3 10 16 29 16 0 0 0 0 0 0 0 0 3 13 13 26 32 48
0 0 0 0 0 0 0 0 0 0 0 0 0 0 3 3 0 0 0 0 0 0 0 0 6 3 13 16 0 0 26 0 0 0 0 0 0 0 0 0 0 3 3
0 0 0 0 0 0 0 0 0 0 0 0 0 0 0 0 0 0 0 0 0 0 0 0 3 3 0 0 0 10 6 0 0 0 0 0 0 0 0 0 0 0 0
0 0 0 0 0 0 0 0 0 0 0 0 0 0 0 0 0 0 0 0 0 0 0 0 3 3 0 0 3 13 6 13 10 0 0 0 0 0 0 0 0 0 0
0 0 0 0 0 0 0 0 0 0 0 0 0 0 0 0 0 0 0 0 0 0 0 0 0 0 0 0 3 3 0 0 16 0 0 0 0 0 0 0 0 0 0
0 0 0 0 0 0 0 0 0 0 0 0 0 0 0 0 0 0 0 0 0 0 0 0 0 0 0 0 3 3 3 3 3 0 0 0 0 0 0 0 0 0 0
0 0 0 0 0 0 0 0 0 0 0 0 0 0 0 0 0 0 0 0 0 0 0 0 0 0 0 0 0 0 0 3 0 0 0 0 0 0 0 0 0 0 0
0 0 0 0 0 0 0 0 0 0 0 0 0 0 0 0 0 0 0 0 0 0 0 0 0 0 0 0 0 0 0 0 0 0 0 0 0 0 0 0 0 0 0
0 0 0 0 0 0 0 0 0 0 0 0 0 0 0 0 0 0 0 0 0 0 0 0 0 0 0 0 0 0 0 0 0 0 0 0 0 3 0 0 0 0 0
0 0 0 0 0 0 0 0 0 0 0 0 0 0 0 0 0 0 0 0 0 0 0 0 0 0 0 0 0 0 0 0 0 3 0 0 0 0 0 0 0 0 0
0 0 0 0 0 0 0 0 0 0 0 0 0 0 0 0 0 0 0 0 0 0 0 0 0 0 0 0 0 0 0 0 0 0 0 0 0 0 0 0 0 0 0
0 0 0 0 0 0 0 0 0 0 0 0 0 0 0 0 0 0 0 0 0 0 0 0 0 0 0 0 0 0 0 0 0 0 0 0 0 0 0 0 0 0 0
0 0 0 0 0 0 0 0 0 0 0 0 0 0 0 0 0 0 0 0 0 0 0 0 0 0 0 0 0 0 0 0 0 0 0 0 0 0 0 0 0 0 0
Height
5878 5878 5876 5876 5876 5875 5875 5874 5875 5875 5875 5876 5876 5877 5878 5878 5878 5879 5881 5882 5884 5886 5888 5889 5891 5893 5895 5897 5899 5902 5904 5906 5908 5910 5912 5914 5917 5918 5920 5922 5924 5925 5926
5874 5873 5872 5871 5871 5870 5870 5870 5869 5870 5870 5870 5871 5871 5872 5872 5873 5873 5874 5876 5877 5879 5881 5884 5886 5888 5890 5892 5895 5897 5900 5902 5904 5907 5909 5912 5914 5916 5918 5920 5922 5923 5925
5870 5869 5868 5866 5865 5865 5864 5864 5863 5863 5864 5864 5864 5865 5865 5866 5866 5867 5867 5869 5871 5873 5875 5877 5880 5882 5885 5887 5889 5892 5894 5897 5900 5903 5905 5908 5911 5913 5915 5918 5920 5921 5923
5865 5864 5862 5860 5859 5858 5858 5858 5857 5857 5857 5857 5857 5858 5858 5859 5859 5860 5861 5862 5864 5866 5868 5871 5873 5876 5878 5881 5883 5886 5889 5892 5895 5898 5901 5904 5907 5910 5912 5915 5917 5919 5921
5859 5858 5856 5854 5853 5852 5851 5850 5850 5850 5849 5849 5850 5850 5851 5852 5852 5853 5854 5855 5857 5859 5861 5864 5866 5868 5871 5874 5877 5880 5883 5886 5889 5893 5896 5899 5902 5905 5908 5911 5914 5916 5918
5853 5851 5849 5847 5846 5845 5844 5843 5842 5842 5841 5842 5842 5842 5843 5844 5844 5845 5846 5848 5849 5851 5853 5856 5858 5861 5864 5867 5870 5873 5877 5880 5884 5887 5891 5894 5897 5901 5904 5907 5910 5912 5915
5846 5844 5842 5840 5839 5837 5836 5835 5834 5834 5833 5833 5834 5834 5835 5835 5836 5837 5838 5840 5842 5844 5846 5848 5851 5853 5856 5859 5862 5866 5870 5873 5877 5881 5885 5888 5892 5895 5899 5902 5905 5908 5911
5839 5836 5834 5832 5830 5829 5827 5826 5825 5825 5824 5824 5825 5825 5826 5828 5828 5828 5830 5832 5834 5835 5838 5840 5843 5846 5849 5852 5856 5859 5863 5867 5870 5874 5878 5882 5886 5890 5893 5897 5900 5903 5907
5831 5829 5826 5824 5822 5820 5819 5818 5816 5816 5816 5815 5815 5816 5817 5818 5818 5820 5821 5823 5825 5827 5830 5832 5835 5838 5841 5844 5848 5851 5855 5859 5863 5866 5870 5875 5879 5883 5887 5891 5895 5898 5902
5823 5820 5818 5816 5814 5812 5810 5809 5807 5807 5806 5806 5806 5807 5807 5808 5809 5810 5812 5813 5816 5818 5820 5823 5826 5829 5832 5835 5840 5843 5847 5851 5855 5859 5863 5868 5872 5877 5881 5885 5889 5892 5896
5815 5812 5809 5807 5805 5803 5802 5800 5799 5798 5797 5797 5797 5797 5798 5798 5799 5801 5802 5804 5806 5809 5811 5814 5818 5821 5824 5827 5831 5835 5839 5843 5847 5851 5856 5860 5865 5869 5874 5878 5882 5887 5890
5807 5804 5802 5799 5797 5795 5793 5791 5790 5789 5788 5787 5787 5787 5788 5789 5789 5791 5792 5794 5796 5799 5802 5805 5808 5812 5815 5818 5822 5826 5831 5835 5839 5843 5848 5853 5857 5862 5867 5872 5876 5880 5884
5800 5797 5794 5791 5789 5786 5784 5782 5781 5780 5779 5778 5778 5778 5778 5779 5779 5781 5782 5784 5787 5789 5792 5795 5799 5802 5806 5809 5813 5817 5822 5826 5831 5835 5840 5845 5850 5855 5860 5865 5870 5874 5878
5793 5790 5787 5783 5780 5778 5775 5773 5772 5770 5769 5769 5768 5768 5768 5768 5769 5770 5772 5775 5777 5779 5782 5785 5789 5792 5796 5800 5803 5807 5812 5817 5822 5827 5832 5837 5842 5847 5853 5858 5863 5867 5872
5786 5782 5779 5775 5772 5769 5767 5764 5762 5761 5760 5759 5758 5758 5758 5758 5759 5760 5762 5764 5767 5769 5772 5775 5778 5782 5785 5789 5794 5798 5802 5807 5813 5819 5824 5830 5835 5840 5845 5851 5856 5861 5865
5779 5774 5771 5767 5763 5760 5757 5755 5753 5751 5749 5748 5747 5747 5747 5747 5748 5749 5751 5753 5755 5758 5762 5764 5768 5771 5775 5779 5784 5788 5793 5798 5803 5809 5815 5821 5827 5832 5838 5844 5849 5854 5859
5771 5766 5762 5758 5754 5751 5748 5745 5742 5740 5738 5737 5736 5736 5736 5736 5736 5737 5739 5741 5744 5747 5750 5754 5757 5761 5765 5769 5774 5779 5784 5789 5794 5800 5806 5812 5819 5825 5830 5836 5842 5847 5852
5762 5758 5753 5749 5745 5741 5737 5734 5732 5729 5727 5726 5724 5724 5724 5723 5724 5725 5727 5729 5731 5735 5738 5742 5746 5750 5755 5759 5764 5769 5774 5780 5785 5791 5797 5803 5810 5816 5822 5828 5834 5840 5845
5754 5748 5744 5739 5734 5730 5727 5723 5720 5717 5715 5713 5712 5711 5711 5711 5711 5712 5713 5716 5718 5722 5725 5730 5734 5738 5743 5748 5753 5759 5764 5770 5775 5781 5787 5793 5800 5807 5814 5820 5826 5832 5838
5745 5739 5734 5729 5724 5719 5715 5712 5708 5705 5703 5701 5699 5698 5698 5698 5698 5699 5700 5702 5705 5708 5712 5716 5722 5726 5732 5737 5742 5748 5754 5759 5765 5772 5778 5784 5791 5798 5805 5812 5818 5825 5831
5735 5729 5723 5718 5712 5708 5704 5700 5696 5693 5690 5688 5686 5685 5684 5683 5684 5684 5686 5688 5691 5694 5698 5703 5708 5714 5719 5725 5731 5736 5743 5749 5755 5761 5768 5775 5782 5789 5795 5803 5810 5817 5823
5725 5719 5713 5707 5701 5696 5692 5688 5684 5681 5678 5675 5673 5671 5669 5669 5669 5669 5670 5673 5676 5680 5684 5689 5695 5701 5707 5713 5719 5725 5731 5738 5745 5752 5758 5765 5772 5779 5787 5794 5801 5809 5816
5715 5709 5702 5696 5690 5685 5680 5676 5671 5668 5665 5662 5659 5657 5655 5654 5654 5654 5655 5657 5661 5665 5670 5675 5681 5687 5694 5701 5707 5714 5720 5726 5734 5740 5748 5754 5761 5769 5777 5785 5792 5800 5808
5705 5698 5691 5685 5679 5673 5668 5664 5659 5656 5652 5649 5646 5643 5641 5639 5639 5639 5640 5643 5647 5651 5656 5661 5668 5674 5680 5687 5694 5701 5707 5715 5722 5729 5736 5744 5751 5759 5767 5776 5783 5791 5799
5695 5688 5681 5675 5668 5663 5657 5652 5648 5644 5640 5636 5633 5630 5628 5626 5625 5625 5626 5629 5632 5636 5641 5647 5653 5660 5666 5674 5681 5688 5696 5703 5711 5718 5726 5733 5741 5749 5757 5765 5774 5782 5790
5685 5678 5671 5664 5658 5652 5647 5642 5637 5632 5628 5624 5621 5618 5615 5613 5612 5612 5613 5616 5619 5623 5627 5633 5639 5646 5653 5661 5668 5676 5683 5691 5699 5707 5715 5722 5730 5738 5746 5755 5764 5772 5781
Wind_Speed
21 22 23 24 24 24 23 23 23 22 21 21 21 21 21 22 22 24 24 24 25 26 25 25 26 26 26 25 24 24 23 22 21 20 19 18 18 17 16 15 14 13 12
22 22 21 22 23 23 23 24 24 24 24 23 23 23 23 24 24 25 26 26 27 27 28 28 27 28 27 27 26 26 26 25 24 22 21 20 20 19 18 17 16 15 14
21 22 23 23 24 25 25 25 25 25 26 25 25 25 25 25 26 27 27 27 28 29 30 30 30 29 30 29 30 29 29 28 27 26 24 23 22 21 20 19 18 17 16
23 23 24 24 25 26 27 27 26 26 26 27 28 27 26 26 27 27 27 28 28 29 31 31 32 32 32 32 32 32 31 30 29 28 27 26 24 23 22 21 20 19 17
24 25 26 26 26 27 28 28 28 28 28 28 29 29 28 28 29 28 28 29 30 29 31 33 33 34 34 34 34 34 34 33 31 30 30 28 27 26 24 23 22 21 20
26 27 27 28 28 29 30 30 30 30 30 30 30 31 30 30 30 30 29 30 30 31 31 32 34 35 36 36 36 36 36 35 34 32 32 31 29 28 27 25 24 23 21
27 28 29 29 30 30 31 31 32 32 32 32 33 33 33 33 32 33 32 32 32 33 32 33 34 35 36 37 37 37 37 37 36 35 34 33 32 31 29 28 26 25 24
29 30 30 31 31 31 31 32 32 33 33 33 34 34 34 35 34 34 35 34 34 34 34 33 34 34 35 37 38 38 38 38 37 37 37 35 34 33 32 30 29 27 26
31 31 31 32 32 32 32 32 32 33 33 33 34 34 34 35 36 35 35 36 35 35 35 34 35 35 35 37 38 39 39 39 38 38 38 38 36 35 34 32 31 30 28
31 31 31 31 31 32 32 32 33 33 33 33 33 34 35 35 35 35 36 36 36 36 36 36 36 36 37 37 38 39 40 40 39 39 38 39 38 38 36 34 33 32 31
30 31 31 31 31 31 31 32 32 33 33 33 33 34 34 35 35 35 36 37 37 38 38 37 37 37 37 38 39 39 41 40 40 40 39 39 39 39 38 36 34 33 32
30 30 30 30 31 31 31 31 32 32 32 33 33 34 34 34 35 36 36 37 38 39 39 39 38 38 38 38 39 39 40 41 41 41 40 40 39 39 39 37 35 34 32
29 29 30 30 31 31 31 31 32 32 32 33 33 34 34 35 35 36 36 37 39 40 40 40 40 39 39 39 39 41 41 41 42 41 40 40 39 39 39 38 37 35 34
29 29 30 30 31 31 32 32 32 32 33 33 34 34 35 35 36 36 37 37 38 40 41 41 42 41 41 41 41 41 41 42 42 42 41 40 39 39 39 39 38 36 34
29 29 30 30 31 31 31 32 32 32 33 34 34 35 35 36 37 37 38 39 39 40 41 42 43 42 42 42 41 41 41 42 43 43 42 41 40 39 39 39 38 36 35
30 30 30 31 31 32 32 33 33 34 34 35 35 36 37 37 38 39 39 40 40 41 41 42 43 43 43 42 42 42 42 43 43 44 43 42 40 40 39 39 38 36 34
31 31 32 32 32 33 33 33 34 34 35 36 36 37 37 39 39 40 40 41 42 42 42 42 43 44 44 43 43 44 44 44 44 45 44 44 43 42 41 40 39 37 35
33 33 33 33 34 34 34 34 35 35 35 35 36 37 37 39 40 41 42 43 43 44 44 44 44 45 46 46 45 44 45 45 44 45 44 44 45 43 42 41 40 39 37
35 35 35 35 35 35 35 36 36 36 36 36 36 37 38 39 40 41 42 44 45 45 46 46 46 47 47 47 46 45 46 46 46 45 45 46 46 44 42 42 41 40 38
37 37 37 37 37 37 36 36 36 36 37 37 37 38 39 40 41 42 43 44 45 46 47 47 47 48 48 48 48 46 46 47 47 47 47 47 46 45 44 43 42 41 40
39 39 39 38 38 38 37 37 37 37 37 37 38 38 39 41 42 43 45 45 46 47 47 48 48 49 49 49 49 48 47 48 48 48 49 48 48 47 46 45 44 43 42
41 40 40 39 39 39 38 38 37 36 36 36 37 38 39 41 42 43 45 45 46 46 47 48 49 50 50 50 50 49 48 48 49 49 50 50 49 48 48 47 46 45 43
41 41 40 40 40 39 38 37 37 36 36 37 37 38 39 40 40 41 43 44 45 46 47 48 49 50 50 52 50 51 50 50 49 51 52 51 51 50 49 49 48 47 45
42 41 41 40 39 38 38 37 36 36 36 36 37 37 38 38 38 39 40 42 44 45 46 48 49 50 51 52 51 51 51 51 51 51 52 52 52 52 50 51 51 49 47
43 42 41 39 38 37 37 36 35 35 35 35 35 36 36 36 36 37 38 39 41 44 46 47 49 50 52 52 52 51 51 52 53 52 53 52 52 53 52 52 53 51 49
43 42 40 39 37 36 36 35 34 34 33 33 34 34 34 35 35 35 36 37 39 41 44 46 48 50 52 52 53 53 52 52 53 53 52 51 53 55 54 54 54 53 51
Wind_Direction
287 288 283 279 279 277 276 273 273 273 273 272 268 267 262 258 258 254 254 250 243 240 238 234 231 229 228 225 223 222 221 219 218 218 219 219 219 218 216 214 213 213 213
285 287 285 285 287 282 282 279 277 273 271 271 270 267 266 262 258 256 253 250 245 242 239 237 234 231 231 228 227 225 224 222 220 218 219 220 220 221 220 219 218 219 219
288 291 288 286 286 284 283 282 280 276 271 269 269 267 266 264 261 258 253 250 246 242 240 238 237 235 234 232 230 227 225 223 222 220 220 221 222 222 223 223 222 222 223
290 291 290 287 285 282 281 280 278 277 275 270 267 266 266 264 261 258 255 251 248 245 241 239 239 237 235 234 232 229 226 223 223 222 221 222 222 223 224 225 225 225 226
290 289 289 285 285 283 281 279 277 276 273 270 267 265 266 264 262 259 257 253 250 248 243 240 240 237 235 234 233 231 229 226 223 223 223 223 223 223 224 226 227 227 228
291 291 289 288 285 283 280 278 277 275 272 270 268 265 264 263 261 258 257 254 252 248 245 243 241 238 236 234 233 231 231 228 226 225 224 224 223 224 224 225 227 227 228
293 292 291 289 286 284 281 279 277 274 272 270 268 265 264 263 261 258 256 255 252 249 247 245 243 240 237 235 233 232 232 230 228 226 226 225 224 226 226 226 227 227 228
294 293 291 290 287 284 281 279 276 274 272 269 267 265 262 262 260 258 255 253 250 248 246 245 243 241 238 235 235 233 233 233 232 230 229 227 226 225 225 226 227 229 230
294 293 292 290 288 285 282 279 276 274 271 269 266 264 262 260 259 257 254 251 248 247 245 245 242 241 239 237 235 234 233 233 234 232 230 229 227 224 225 227 227 229 230
296 295 293 291 288 286 283 280 278 275 272 269 266 264 262 260 258 256 253 250 248 246 244 244 243 241 239 237 236 233 233 234 234 231 231 230 228 226 226 226 227 229 230
299 297 294 291 289 286 284 281 279 276 273 270 268 265 263 261 258 255 252 249 248 246 244 244 243 241 239 238 236 234 233 234 233 231 231 231 230 228 226 226 227 229 230
300 298 295 293 290 287 285 282 280 277 275 272 269 267 265 262 259 255 252 249 247 246 245 243 242 240 238 237 236 234 232 233 232 231 231 231 229 227 227 227 226 227 229
301 299 297 294 292 290 287 284 281 278 276 273 271 268 266 263 259 256 253 249 247 246 244 243 241 240 238 238 236 234 232 231 231 230 230 229 228 228 227 226 227 227 228
303 301 299 296 293 290 288 285 282 280 277 274 271 269 267 264 261 257 254 251 248 246 245 243 242 241 239 237 236 234 231 230 229 228 229 227 228 226 226 226 227 228 228
306 303 300 298 294 291 288 286 283 281 278 275 272 270 267 265 262 259 255 253 249 246 245 243 241 240 238 236 235 234 232 230 228 227 227 227 227 225 226 227 226 227 227
308 305 302 299 296 293 290 287 284 282 279 276 273 270 268 265 262 259 257 254 250 247 244 242 241 239 238 234 233 233 232 230 227 226 226 225 225 225 225 225 224 224 224
309 307 304 302 298 294 291 288 286 284 281 277 274 271 268 266 262 259 257 254 251 247 244 242 241 239 237 235 233 231 230 229 229 226 225 223 223 223 224 224 223 222 221
311 308 306 303 300 296 292 289 287 285 282 278 275 271 268 266 263 260 257 254 251 248 245 242 240 239 237 236 234 233 231 231 229 225 223 223 222 221 222 222 220 220 219
313 310 307 304 301 297 293 291 288 285 282 278 275 272 269 266 263 260 257 254 251 248 245 242 239 238 236 236 234 233 231 230 227 225 223 222 221 220 220 219 218 217 217
314 311 308 305 302 298 295 292 289 286 283 279 276 273 270 267 264 260 257 254 251 248 244 242 239 237 235 234 234 232 230 229 226 224 223 221 219 218 218 217 216 216 216
316 312 309 306 303 299 295 292 291 288 284 280 278 275 271 268 265 261 257 254 250 247 244 241 238 235 234 232 233 233 231 229 226 224 222 220 218 217 217 216 216 216 216
316 313 310 307 304 301 297 294 292 289 286 282 280 278 275 271 267 262 257 253 250 246 243 240 238 235 233 230 230 230 230 229 227 223 221 220 218 218 217 216 215 215 215
317 315 312 309 306 303 300 297 294 291 288 284 282 280 277 273 268 262 257 252 249 245 242 240 237 234 233 230 228 228 228 228 226 225 222 219 218 217 217 216 214 215 215
318 316 314 311 308 305 301 299 296 293 290 288 285 282 278 275 269 262 256 251 247 244 241 239 236 233 231 230 229 227 227 226 224 224 222 220 219 218 218 216 216 215 215
319 316 314 312 310 308 305 301 298 296 292 290 287 284 280 275 269 263 257 251 246 243 240 237 234 232 230 229 228 226 225 225 224 224 224 222 220 219 219 218 216 215 215
319 317 315 314 312 310 307 304 301 299 296 293 289 286 281 274 269 263 256 251 246 242 240 237 234 231 229 229 228 227 226 225 224 224 223 222 220 219 219 219 216 215 216